SCP
-0 -0 -0 -0 0 0 -0 0 0 -0 -0 -0 0 0 0 0 -0 0 0 1 4 1 0 0 0 0 1 1 1 0 0 0 0 0 0 0 0 0 0 0 0 0 0 0
-0 -0 0 0 0 0 0 0 0 0 -0 0 0 0 0 0 -0 0 0 1 3 1 0 0 0 1 0 0 0 0 0 0 -0 -0 0 0 0 0 0 0 0 0 0 0
-0 -0 -0 0 0 0 0 0 0 0 0 0 0 0 0 0 0 1 1 1 1 1 0 0 0 0 0 0 0 0 0 0 0 0 0 0 0 0 0 0 0 0 0 0
0 -0 0 0 0 0 0 0 0 0 0 0 -0 0 0 0 1 1 1 1 0 0 0 0 0 0 0 0 0 0 0 0 0 0 0 0 0 0 0 0 0 0 0 0
0 0 0 0 0 0 0 -0 -0 -0 -0 -0 0 0 0 1 1 1 0 0 0 0 0 0 0 0 0 0 0 0 0 0 0 0 0 0 0 0 0 0 0 0 0 0
-0 0 0 0 -0 -0 0 -0 -0 -0 -0 0 0 1 1 0 0 0 0 0 0 0 0 0 0 0 0 0 0 0 0 -0 0 0 0 -0 -0 -0 0 0 0 0 0 0
0 0 0 -0 0 -0 -0 -0 -0 -0 0 0 0 0 0 0 0 0 0 0 0 0 0 0 0 0 0 0 0 0 -0 -0 -0 0 -0 -0 0 0 0 0 0 0 0 0
0 0 0 -0 -0 -0 -0 0 -0 -0 0 0 0 0 0 0 0 0 0 0 0 0 0 0 0 0 0 0 -0 -0 -0 -0 -0 -0 0 0 0 0 0 0 0 0 0 0
0 0 -0 -0 -0 -0 0 0 0 0 0 0 0 0 0 0 0 0 0 0 0 0 0 0 0 0 -0 -0 -0 -0 -0 -0 -0 -0 0 0 0 0 -0 -0 -0 -0 -0 0
0 0 -0 0 -0 -0 0 0 0 0 0 0 0 0 0 0 0 0 0 0 0 0 0 0 0 -0 -0 -0 -0 -0 -0 -0 0 0 0 0 0 0 0 0 0 0 0 0
-0 0 0 -0 -0 -0 0 0 0 0 0 0 0 0 0 0 0 0 0 0 0 0 0 0 0 -0 -0 -0 -0 -0 0 0 0 0 0 0 0 0 0 0 0 0 0 0
0 0 0 0 0 0 0 0 0 0 0 0 0 0 0 0 0 0 0 0 0 0 0 0 0 -0 -0 0 0 0 0 0 0 0 0 0 0 0 0 0 -0 -0 0 0
0 0 0 -0 0 0 0 0 0 0 0 0 0 0 0 0 0 0 0 0 0 0 0 0 0 0 0 -0 -0 -0 0 0 0 0 0 0 0 0 0 0 0 0 0 0
-0 0 0 0 0 0 0 0 0 0 0 0 0 0 0 0 0 0 0 0 0 0 0 0 0 0 0 0 0 0 0 0 0 0 0 0 0 0 0 0 0 0 0 0
-0 -0 0 0 0 0 0 0 0 0 0 0 0 0 0 0 0 0 0 0 0 0 0 0 0 0 0 0 0 0 0 0 0 0 0 0 -0 -0 0 0 0 0 0 -0
0 0 0 0 0 0 0 0 0 0 0 0 0 0 0 0 0 0 0 0 0 0 0 0 0 0 0 0 0 0 0 0 0 0 0 0 0 0 0 0 0 0 0 0
-0 0 0 0 0 0 0 0 0 0 0 0 0 0 0 0 0 0 0 0 0 0 0 0 0 0 0 0 0 0 0 0 0 0 0 0 0 0 0 0 0 0 0 0
-0 0 -0 -0 0 0 0 0 0 0 0 0 0 0 0 0 0 0 0 0 0 0 0 0 0 0 0 0 0 0 0 0 0 0 0 0 0 0 0 0 0 0 0 0
0 0 -0 -0 0 0 0 0 0 0 0 0 0 0 0 0 0 0 0 0 0 0 0 0 0 0 0 0 0 0 0 0 0 0 0 0 0 0 0 0 0 0 0 0
0 0 0 0 0 0 0 0 0 0 0 0 0 0 0 0 0 0 0 0 0 0 0 0 0 0 0 0 0 0 0 0 0 0 0 0 0 0 0 0 0 0 0 0
0 0 0 0 0 0 0 0 0 0 0 0 0 0 0 0 0 0 0 0 0 0 0 0 0 0 0 0 0 0 0 0 0 0 0 0 0 0 0 0 0 0 0 0
0 0 0 0 0 0 0 0 0 0 0 0 0 0 0 0 0 0 0 0 0 0 0 0 0 0 0 0 0 0 0 0 0 0 0 0 0 0 0 0 0 0 0 0
0 0 0 0 0 0 0 0 0 0 0 0 0 0 0 0 0 0 0 0 0 0 0 0 0 0 0 0 0 0 0 0 0 0 0 0 0 0 0 0 0 0 0 0
-0 0 0 0 0 0 0 0 0 0 0 0 0 0 0 0 0 0 0 0 0 0 0 0 0 0 0 0 0 0 0 0 0 0 0 0 0 0 0 0 0 0 0 0
-0 -0 -0 0 0 0 0 0 0 0 0 0 0 0 0 0 0 0 0 0 0 0 0 0 0 0 0 0 0 0 0 0 0 0 0 0 0 0 0 0 0 0 0 0
-0 -0 -0 -0 0 0 0 0 0 0 0 0 0 0 0 0 0 0 0 0 0 0 0 0 0 0 0 0 0 0 0 0 0 0 0 0 0 0 0 0 0 0 0 0
-0 -0 -0 -0 0 0 0 0 0 0 0 0 0 0 0 0 0 0 0 0 0 0 0 0 0 0 0 0 0 0 0 0 0 0 0 0 0 0 0 0 0 0 0 0
Wind_Speed_500mb
44 48 50 53 50 45 41 41 37 36 41 30 28 21 31 36 52 44 37 52 68 91 105 85 55 57 75 97 109 108 103 95 94 89 79 72 64 57 48 40 35 32 27 20
47 51 34 37 8 19 20 31 29 33 43 22 27 34 50 54 34 40 43 61 69 81 85 87 26 116 96 102 103 105 99 98 92 86 77 71 63 54 47 43 36 28 23 18
18 38 47 4 14 22 23 30 17 21 33 32 36 40 43 39 35 26 65 77 74 91 95 109 113 92 95 102 102 104 104 96 90 80 74 65 58 53 47 41 34 26 24 23
19 35 17 10 18 20 20 37 15 21 37 43 47 63 57 46 26 57 68 87 99 97 92 104 106 106 99 98 96 96 96 91 80 75 72 64 57 51 45 38 33 27 26 25
9 23 9 14 28 24 13 35 6 26 40 40 32 21 30 27 64 75 78 91 100 102 101 103 95 103 99 96 90 95 90 88 83 76 68 61 57 51 45 40 36 29 24 27
18 17 11 14 49 64 14 11 33 56 51 41 10 19 12 71 80 83 96 111 116 123 126 108 93 91 100 94 91 91 90 88 76 68 62 60 55 50 44 36 32 30 26 28
19 12 5 34 45 72 11 18 63 63 60 21 9 20 78 90 86 89 103 108 116 120 117 109 93 103 99 95 93 91 90 83 70 63 63 59 60 55 49 41 28 34 36 34
15 10 10 50 23 14 24 52 49 63 53 29 40 76 85 90 91 102 101 106 112 117 103 89 94 105 101 95 90 94 88 77 73 69 66 65 56 45 38 40 37 38 37 33
7 9 18 34 29 40 49 50 43 47 55 32 56 71 86 83 86 92 111 98 105 100 96 87 88 101 111 96 98 88 77 76 69 62 59 55 51 47 41 30 38 44 36 36
15 5 31 29 49 62 53 30 36 39 45 46 56 66 82 84 83 91 99 91 92 94 96 92 96 96 96 81 71 77 80 74 70 66 60 48 45 46 48 45 32 30 25 20
16 9 41 7 56 58 53 28 29 36 54 59 67 67 80 75 76 82 87 86 91 88 90 91 84 78 68 68 77 80 79 74 66 62 57 50 50 46 47 43 40 37 35 26
8 34 11 35 51 36 22 26 32 46 62 73 73 69 81 78 78 82 87 87 87 81 83 85 87 85 76 74 77 78 76 62 56 56 48 37 46 49 40 31 19 19 22 11
11 37 30 31 28 25 22 25 38 56 68 77 79 78 80 77 80 82 83 81 75 74 77 80 79 75 66 58 66 62 61 60 54 41 45 46 44 40 40 33 27 29 31 31
20 23 14 23 17 27 25 32 43 58 69 75 79 85 84 82 81 80 73 69 71 74 72 73 74 70 58 57 56 61 59 53 47 46 41 39 41 41 38 39 42 43 42 41
17 16 11 12 24 29 39 45 50 52 54 62 67 76 82 84 68 69 70 64 66 69 67 67 67 60 54 54 59 61 54 53 48 40 39 43 43 41 29 23 27 33 29 35
14 14 13 18 21 22 33 45 54 54 57 57 58 61 67 70 66 66 62 58 64 64 62 59 59 52 58 61 52 54 52 49 52 50 42 40 38 34 31 27 26 23 19 16
4 11 11 12 17 24 31 33 44 49 58 65 66 64 62 60 59 64 66 65 61 59 57 56 59 54 46 48 61 57 53 52 46 42 41 39 33 30 29 24 18 12 15 29
12 10 12 15 23 31 35 37 42 47 54 59 61 64 70 67 62 66 66 63 67 63 58 54 54 54 45 44 60 61 56 46 42 40 38 35 33 29 26 21 15 18 32 29
12 12 13 17 19 25 32 39 41 46 50 50 54 55 54 57 59 52 57 58 59 54 51 48 51 55 50 47 49 43 41 42 42 35 34 38 31 27 26 24 20 18 16 15
15 14 13 18 22 28 34 34 41 46 54 52 49 48 46 42 43 47 41 37 41 52 52 45 47 51 49 43 38 40 38 34 30 38 33 28 28 27 28 24 18 18 15 13
15 15 17 21 29 32 37 36 45 46 42 45 48 48 47 45 44 45 41 46 49 50 42 39 55 52 53 45 36 34 32 33 32 34 28 27 24 24 21 19 16 14 14 11
15 18 18 22 31 37 37 33 36 39 45 44 42 38 39 38 34 32 35 46 41 44 37 35 34 50 44 36 34 33 31 30 33 27 24 25 24 22 19 16 14 13 12 11
18 22 25 25 29 35 40 34 32 35 38 33 37 31 33 32 29 32 34 45 41 34 33 31 40 50 40 33 34 33 32 29 27 27 27 22 20 19 18 17 15 12 11 9
24 24 24 29 31 30 31 32 27 29 32 28 25 25 28 28 26 25 34 42 32 26 25 27 47 46 33 25 27 28 31 28 25 23 23 25 19 18 20 17 15 12 7 6
23 28 30 29 25 24 28 29 27 28 26 25 26 22 20 22 24 24 37 39 37 19 21 36 49 38 30 20 22 25 24 24 26 24 23 20 19 14 14 17 14 12 10 7
24 24 26 25 22 25 25 25 23 23 25 26 26 23 23 24 25 22 29 31 40 22 21 36 41 36 27 18 19 18 18 24 26 24 24 30 24 22 17 14 9 8 8 7
21 23 23 24 23 24 24 25 26 27 24 22 23 23 22 22 23 24 27 29 32 25 18 28 36 37 21 19 20 22 20 20 25 26 26 26 35 30 22 21 19 14 11 9
Wind_Direction_500mb
274 270 271 273 279 273 257 246 254 272 255 256 281 324 293 254 256 282 147 135 128 137 137 114 119 173 131 141 150 149 149 147 139 140 142 141 137 138 141 141 138 132 132 144
290 285 272 265 25 1 348 318 306 301 285 326 343 307 287 262 272 271 172 141 129 143 160 164 138 146 154 143 141 147 143 137 140 140 142 143 143 141 141 135 131 130 133 123
281 310 308 89 50 5 310 294 288 272 294 320 290 262 254 250 244 228 158 133 123 121 132 149 165 153 138 137 140 136 131 133 137 143 141 138 141 142 138 134 132 130 114 108
288 303 307 76 9 343 297 290 307 273 288 281 267 265 253 246 235 155 154 132 135 131 132 139 141 139 139 137 136 131 129 131 132 135 133 137 139 135 129 124 120 117 114 112
278 311 276 29 337 326 324 297 261 306 295 294 249 218 273 198 160 151 132 128 136 144 156 139 135 133 135 131 130 126 124 125 127 132 135 134 130 127 124 123 119 115 112 108
299 301 303 352 335 327 314 259 335 333 328 317 344 115 124 127 130 124 126 130 128 131 144 145 138 136 129 128 126 124 125 126 126 129 130 127 126 121 118 116 118 124 107 95
324 298 91 5 347 325 19 318 316 317 314 46 115 100 103 112 110 113 119 123 127 134 140 145 137 132 127 125 122 121 122 123 126 126 124 121 117 119 128 129 119 89 84 87
328 306 334 7 348 17 295 304 318 318 332 51 95 94 98 106 113 113 114 118 121 123 128 133 130 124 119 115 122 122 123 127 127 125 127 130 129 128 116 104 97 90 82 77
294 316 351 350 324 327 332 315 327 332 356 64 92 96 98 99 102 104 107 109 115 120 125 126 122 124 121 122 129 132 130 122 121 122 120 113 113 114 114 108 103 93 92 89
326 62 345 318 341 345 346 342 347 23 36 64 87 94 100 95 98 101 108 113 118 118 117 112 121 122 124 131 133 130 122 120 115 113 115 116 132 131 126 117 114 101 100 108
276 344 328 339 341 346 351 5 38 55 63 73 83 88 97 101 101 104 109 111 112 112 111 109 113 116 125 132 132 123 122 124 130 132 135 139 132 128 127 118 134 138 132 130
310 327 303 299 338 357 18 38 61 76 78 84 85 86 94 95 99 102 104 106 108 112 112 111 112 114 119 128 131 130 123 130 135 135 136 120 129 129 121 121 130 110 142 129
277 324 326 343 10 38 78 73 80 91 87 90 91 91 93 94 98 101 102 104 108 110 110 116 119 120 128 129 121 123 121 116 116 116 118 118 122 128 126 115 107 100 96 89
337 346 342 13 37 60 104 102 100 101 101 94 101 103 96 95 95 96 100 107 110 111 110 113 113 112 118 125 128 119 119 116 109 107 111 113 115 114 107 108 100 92 86 80
13 19 15 39 74 77 106 113 105 99 104 104 108 109 108 101 92 99 108 106 108 109 109 110 112 113 120 127 124 117 120 121 122 119 113 104 103 112 112 101 95 80 83 74
45 62 51 79 99 95 103 105 109 103 109 114 117 116 114 106 104 103 104 107 109 105 111 114 115 120 122 120 123 124 123 132 134 125 120 124 128 125 119 112 106 95 104 92
45 91 94 90 119 126 120 120 116 117 119 116 117 119 118 121 113 115 113 114 113 113 113 111 111 112 123 134 134 132 127 122 125 129 129 127 125 124 125 127 128 144 114 120
76 78 114 136 136 133 136 132 128 128 123 123 126 126 125 124 120 119 120 120 121 119 120 121 127 127 129 129 131 125 122 125 130 128 127 127 128 127 126 125 128 103 99 102
89 94 106 127 139 139 132 132 133 126 127 126 123 117 117 119 121 127 125 124 120 120 114 116 123 128 125 126 121 119 134 134 126 133 138 129 127 126 127 128 126 110 100 96
108 103 114 125 134 144 141 137 134 129 125 118 115 111 108 106 106 107 113 117 126 125 128 141 141 137 130 128 132 130 127 134 139 133 123 130 130 145 136 134 131 125 130 128
124 118 122 136 138 140 141 143 141 128 125 124 123 126 130 132 132 132 132 131 134 143 143 144 143 133 130 126 127 133 132 123 133 139 135 147 137 124 129 129 135 139 139 126
138 134 138 143 148 144 136 139 143 143 147 137 141 137 135 132 128 135 138 136 137 126 122 128 140 139 134 126 139 134 139 139 131 138 137 133 139 140 142 146 147 145 140 134
141 143 139 137 146 147 144 144 148 141 143 147 141 133 137 140 150 142 144 143 131 137 161 169 160 145 127 130 143 138 143 144 146 147 145 144 146 156 157 160 154 152 141 131
139 137 138 144 148 146 147 147 146 149 148 148 147 145 143 141 139 161 155 149 161 155 176 175 160 149 128 140 142 148 148 148 151 149 160 154 159 164 175 186 157 156 190 147
155 156 147 146 149 155 154 149 150 152 153 153 152 152 154 155 165 179 170 165 172 171 164 163 163 155 127 153 153 154 159 159 165 166 167 162 163 180 182 168 173 175 172 174
158 162 166 167 162 161 158 161 166 166 166 164 163 165 165 164 169 172 166 182 170 163 167 169 171 164 136 166 163 162 171 192 188 164 180 173 163 192 184 168 213 226 207 177
177 173 174 175 169 172 178 178 175 179 178 181 178 177 174 172 179 172 169 179 177 163 184 180 178 165 149 181 178 180 193 220 193 191 193 196 189 186 189 189 186 204 222 229
Wind_Speed_850mb
44 48 50 53 50 45 41 41 37 36 41 30 28 21 31 36 52 44 37 52 68 91 105 85 55 57 75 97 109 108 103 95 94 89 79 72 64 57 48 40 35 32 27 20
47 51 34 37 8 19 20 31 29 33 43 22 27 34 50 54 34 40 43 61 69 81 85 87 26 116 96 102 103 105 99 98 92 86 77 71 63 54 47 43 36 28 23 18
18 38 47 4 14 22 23 30 17 21 33 32 36 40 43 39 35 26 65 77 74 91 95 109 113 92 95 102 102 104 104 96 90 80 74 65 58 53 47 41 34 26 24 23
19 35 17 10 18 20 20 37 15 21 37 43 47 63 57 46 26 57 68 87 99 97 92 104 106 106 99 98 96 96 96 91 80 75 72 64 57 51 45 38 33 27 26 25
9 23 9 14 28 24 13 35 6 26 40 40 32 21 30 27 64 75 78 91 100 102 101 103 95 103 99 96 90 95 90 88 83 76 68 61 57 51 45 40 36 29 24 27
18 17 11 14 49 64 14 11 33 56 51 41 10 19 12 71 80 83 96 111 116 123 126 108 93 91 100 94 91 91 90 88 76 68 62 60 55 50 44 36 32 30 26 28
19 12 5 34 45 72 11 18 63 63 60 21 9 20 78 90 86 89 103 108 116 120 117 109 93 103 99 95 93 91 90 83 70 63 63 59 60 55 49 41 28 34 36 34
15 10 10 50 23 14 24 52 49 63 53 29 40 76 85 90 91 102 101 106 112 117 103 89 94 105 101 95 90 94 88 77 73 69 66 65 56 45 38 40 37 38 37 33
7 9 18 34 29 40 49 50 43 47 55 32 56 71 86 83 86 92 111 98 105 100 96 87 88 101 111 96 98 88 77 76 69 62 59 55 51 47 41 30 38 44 36 36
15 5 31 29 49 62 53 30 36 39 45 46 56 66 82 84 83 91 99 91 92 94 96 92 96 96 96 81 71 77 80 74 70 66 60 48 45 46 48 45 32 30 25 20
16 9 41 7 56 58 53 28 29 36 54 59 67 67 80 75 76 82 87 86 91 88 90 91 84 78 68 68 77 80 79 74 66 62 57 50 50 46 47 43 40 37 35 26
8 34 11 35 51 36 22 26 32 46 62 73 73 69 81 78 78 82 87 87 87 81 83 85 87 85 76 74 77 78 76 62 56 56 48 37 46 49 40 31 19 19 22 11
11 37 30 31 28 25 22 25 38 56 68 77 79 78 80 77 80 82 83 81 75 74 77 80 79 75 66 58 66 62 61 60 54 41 45 46 44 40 40 33 27 29 31 31
20 23 14 23 17 27 25 32 43 58 69 75 79 85 84 82 81 80 73 69 71 74 72 73 74 70 58 57 56 61 59 53 47 46 41 39 41 41 38 39 42 43 42 41
17 16 11 12 24 29 39 45 50 52 54 62 67 76 82 84 68 69 70 64 66 69 67 67 67 60 54 54 59 61 54 53 48 40 39 43 43 41 29 23 27 33 29 35
14 14 13 18 21 22 33 45 54 54 57 57 58 61 67 70 66 66 62 58 64 64 62 59 59 52 58 61 52 54 52 49 52 50 42 40 38 34 31 27 26 23 19 16
4 11 11 12 17 24 31 33 44 49 58 65 66 64 62 60 59 64 66 65 61 59 57 56 59 54 46 48 61 57 53 52 46 42 41 39 33 30 29 24 18 12 15 29
12 10 12 15 23 31 35 37 42 47 54 59 61 64 70 67 62 66 66 63 67 63 58 54 54 54 45 44 60 61 56 46 42 40 38 35 33 29 26 21 15 18 32 29
12 12 13 17 19 25 32 39 41 46 50 50 54 55 54 57 59 52 57 58 59 54 51 48 51 55 50 47 49 43 41 42 42 35 34 38 31 27 26 24 20 18 16 15
15 14 13 18 22 28 34 34 41 46 54 52 49 48 46 42 43 47 41 37 41 52 52 45 47 51 49 43 38 40 38 34 30 38 33 28 28 27 28 24 18 18 15 13
15 15 17 21 29 32 37 36 45 46 42 45 48 48 47 45 44 45 41 46 49 50 42 39 55 52 53 45 36 34 32 33 32 34 28 27 24 24 21 19 16 14 14 11
15 18 18 22 31 37 37 33 36 39 45 44 42 38 39 38 34 32 35 46 41 44 37 35 34 50 44 36 34 33 31 30 33 27 24 25 24 22 19 16 14 13 12 11
18 22 25 25 29 35 40 34 32 35 38 33 37 31 33 32 29 32 34 45 41 34 33 31 40 50 40 33 34 33 32 29 27 27 27 22 20 19 18 17 15 12 11 9
24 24 24 29 31 30 31 32 27 29 32 28 25 25 28 28 26 25 34 42 32 26 25 27 47 46 33 25 27 28 31 28 25 23 23 25 19 18 20 17 15 12 7 6
23 28 30 29 25 24 28 29 27 28 26 25 26 22 20 22 24 24 37 39 37 19 21 36 49 38 30 20 22 25 24 24 26 24 23 20 19 14 14 17 14 12 10 7
24 24 26 25 22 25 25 25 23 23 25 26 26 23 23 24 25 22 29 31 40 22 21 36 41 36 27 18 19 18 18 24 26 24 24 30 24 22 17 14 9 8 8 7
21 23 23 24 23 24 24 25 26 27 24 22 23 23 22 22 23 24 27 29 32 25 18 28 36 37 21 19 20 22 20 20 25 26 26 26 35 30 22 21 19 14 11 9
Wind_Direction_850mb
274 270 271 273 279 273 257 246 254 272 255 256 281 324 293 254 256 282 147 135 128 137 137 114 119 173 131 141 150 149 149 147 139 140 142 141 137 138 141 141 138 132 132 144
290 285 272 265 25 1 348 318 306 301 285 326 343 307 287 262 272 271 172 141 129 143 160 164 138 146 154 143 141 147 143 137 140 140 142 143 143 141 141 135 131 130 133 123
281 310 308 89 50 5 310 294 288 272 294 320 290 262 254 250 244 228 158 133 123 121 132 149 165 153 138 137 140 136 131 133 137 143 141 138 141 142 138 134 132 130 114 108
288 303 307 76 9 343 297 290 307 273 288 281 267 265 253 246 235 155 154 132 135 131 132 139 141 139 139 137 136 131 129 131 132 135 133 137 139 135 129 124 120 117 114 112
278 311 276 29 337 326 324 297 261 306 295 294 249 218 273 198 160 151 132 128 136 144 156 139 135 133 135 131 130 126 124 125 127 132 135 134 130 127 124 123 119 115 112 108
299 301 303 352 335 327 314 259 335 333 328 317 344 115 124 127 130 124 126 130 128 131 144 145 138 136 129 128 126 124 125 126 126 129 130 127 126 121 118 116 118 124 107 95
324 298 91 5 347 325 19 318 316 317 314 46 115 100 103 112 110 113 119 123 127 134 140 145 137 132 127 125 122 121 122 123 126 126 124 121 117 119 128 129 119 89 84 87
328 306 334 7 348 17 295 304 318 318 332 51 95 94 98 106 113 113 114 118 121 123 128 133 130 124 119 115 122 122 123 127 127 125 127 130 129 128 116 104 97 90 82 77
294 316 351 350 324 327 332 315 327 332 356 64 92 96 98 99 102 104 107 109 115 120 125 126 122 124 121 122 129 132 130 122 121 122 120 113 113 114 114 108 103 93 92 89
326 62 345 318 341 345 346 342 347 23 36 64 87 94 100 95 98 101 108 113 118 118 117 112 121 122 124 131 133 130 122 120 115 113 115 116 132 131 126 117 114 101 100 108
276 344 328 339 341 346 351 5 38 55 63 73 83 88 97 101 101 104 109 111 112 112 111 109 113 116 125 132 132 123 122 124 130 132 135 139 132 128 127 118 134 138 132 130
310 327 303 299 338 357 18 38 61 76 78 84 85 86 94 95 99 102 104 106 108 112 112 111 112 114 119 128 131 130 123 130 135 135 136 120 129 129 121 121 130 110 142 129
277 324 326 343 10 38 78 73 80 91 87 90 91 91 93 94 98 101 102 104 108 110 110 116 119 120 128 129 121 123 121 116 116 116 118 118 122 128 126 115 107 100 96 89
337 346 342 13 37 60 104 102 100 101 101 94 101 103 96 95 95 96 100 107 110 111 110 113 113 112 118 125 128 119 119 116 109 107 111 113 115 114 107 108 100 92 86 80
13 19 15 39 74 77 106 113 105 99 104 104 108 109 108 101 92 99 108 106 108 109 109 110 112 113 120 127 124 117 120 121 122 119 113 104 103 112 112 101 95 80 83 74
45 62 51 79 99 95 103 105 109 103 109 114 117 116 114 106 104 103 104 107 109 105 111 114 115 120 122 120 123 124 123 132 134 125 120 124 128 125 119 112 106 95 104 92
45 91 94 90 119 126 120 120 116 117 119 116 117 119 118 121 113 115 113 114 113 113 113 111 111 112 123 134 134 132 127 122 125 129 129 127 125 124 125 127 128 144 114 120
76 78 114 136 136 133 136 132 128 128 123 123 126 126 125 124 120 119 120 120 121 119 120 121 127 127 129 129 131 125 122 125 130 128 127 127 128 127 126 125 128 103 99 102
89 94 106 127 139 139 132 132 133 126 127 126 123 117 117 119 121 127 125 124 120 120 114 116 123 128 125 126 121 119 134 134 126 133 138 129 127 126 127 128 126 110 100 96
108 103 114 125 134 144 141 137 134 129 125 118 115 111 108 106 106 107 113 117 126 125 128 141 141 137 130 128 132 130 127 134 139 133 123 130 130 145 136 134 131 125 130 128
124 118 122 136 138 140 141 143 141 128 125 124 123 126 130 132 132 132 132 131 134 143 143 144 143 133 130 126 127 133 132 123 133 139 135 147 137 124 129 129 135 139 139 126
138 134 138 143 148 144 136 139 143 143 147 137 141 137 135 132 128 135 138 136 137 126 122 128 140 139 134 126 139 134 139 139 131 138 137 133 139 140 142 146 147 145 140 134
141 143 139 137 146 147 144 144 148 141 143 147 141 133 137 140 150 142 144 143 131 137 161 169 160 145 127 130 143 138 143 144 146 147 145 144 146 156 157 160 154 152 141 131
139 137 138 144 148 146 147 147 146 149 148 148 147 145 143 141 139 161 155 149 161 155 176 175 160 149 128 140 142 148 148 148 151 149 160 154 159 164 175 186 157 156 190 147
155 156 147 146 149 155 154 149 150 152 153 153 152 152 154 155 165 179 170 165 172 171 164 163 163 155 127 153 153 154 159 159 165 166 167 162 163 180 182 168 173 175 172 174
158 162 166 167 162 161 158 161 166 166 166 164 163 165 165 164 169 172 166 182 170 163 167 169 171 164 136 166 163 162 171 192 188 164 180 173 163 192 184 168 213 226 207 177
177 173 174 175 169 172 178 178 175 179 178 181 178 177 174 172 179 172 169 179 177 163 184 180 178 165 149 181 178 180 193 220 193 191 193 196 189 186 189 189 186 204 222 229